Regional Weather Roundup
Issued by NWS Wilmington, NC

Home | Current Version | Previous Version | Text Only | Print | Product List | Glossary On
Versions: 1 2 3 4 5 6 7 8 9 10 11 12 13 14 15 16 17 18 19 20 21 22 23 24 25 26 27 28 29 30 31 32 33 34 35 36 37 38 39 40 41 42 43 44 45 46 47 48 49 50
000
ASUS42 KILM 210110
RWRILM
RWRILM
REGIONAL HOURLY WEATHER ROUNDUP
NATIONAL WEATHER SERVICE WILMINGTON NC
900 PM EDT WED AUG 20 2014

NOTE: "FAIR" INDICATES FEW OR NO CLOUDS BELOW 12,000 FEET WITH NO
SIGNIFICANT WEATHER AND/OR OBSTRUCTIONS TO VISIBILITY.

...............WFO WILMINGTON COUNTY WARNING AREA...............

......COASTAL NC AND SC COUNTIES......

CITY           SKY/WX    TMP DP  RH WIND       PRES   REMARKS
WILMINGTON     CLEAR     78  76  93 S3        29.98R
SOUTHPORT      CLEAR     80  76  87 CALM      29.99R
N MYRTLE BEACH CLEAR     82  77  84 S7        29.97S HX  90
MYRTLE BEACH   CLEAR     84  75  74 S6        29.98R HX  92

......INLAND NC AND SC COUNTIES.......

CITY           SKY/WX    TMP DP  RH WIND       PRES   REMARKS
LUMBERTON      CLEAR     80  76  87 CALM      29.97S
ELIZABETHTOWN  CLEAR     80  76  88 CALM      29.98S
WHITEVILLE     CLEAR     79  73  83 CALM      29.98S
FLORENCE       PTCLDY    81  74  79 CALM      29.98R
DARLINGTON     PTCLDY    79  73  83 CALM      29.99R

....................REST OF NORTH CAROLINA......................

.........EASTERN NC.........

CITY           SKY/WX    TMP DP  RH WIND       PRES   REMARKS
CAPE HATTERAS  MOCLDY    75  72  90 E3        30.00R
JACKSONVILLE   CLEAR     75  72  88 CALM      29.99R
MOREHEAD CITY  PTCLDY    81  75  82 SW5       29.99R
KENANSVILLE    CLEAR     76  74  91 CALM      29.99R
NEW BERN       CLEAR     80  75  84 CALM      30.00R
ELIZABETH CITY CLEAR     76  71  85 E8        29.99R

.........CENTRAL NC.........

CITY           SKY/WX    TMP DP  RH WIND       PRES   REMARKS
RALEIGH DURHAM PTCLDY    75  66  73 CALM      29.99R
ROCKY MOUNT    PTCLDY    76  74  93 CALM      29.99R
ROANOKE RAPIDS NOT AVBL
FAYETTEVILLE   CLEAR     82  75  79 S6        29.97R
HOFFMAN        CLEAR     78  74  88 S1        30.00R

.........WESTERN NC.........

CITY           SKY/WX    TMP DP  RH WIND       PRES   REMARKS
CHARLOTTE      MOCLDY    81  72  74 CALM      30.03R
GREENSBORO     MOCLDY    80  70  71 SW5       30.00R
HICKORY        NOT AVBL
BOONE          NOT AVBL
ASHEVILLE      NOT AVBL

.....................REST OF SOUTH CAROLINA.....................

.........EASTERN SC.........

CITY           SKY/WX    TMP DP  RH WIND       PRES   REMARKS
CHARLESTON     CLEAR     84  75  74 S7        29.99R HX  92
BEAUFORT MCAS  PTCLDY    84  75  74 CALM      29.99R HX  92
HILTON HEAD    NOT AVBL

.........CENTRAL SC.........

CITY           SKY/WX    TMP DP  RH WIND       PRES   REMARKS
COLUMBIA       MOCLDY    86  74  67 S5        29.98R HX  94
ORANGEBURG     MOCLDY    82  75  79 S3        29.99R
SUMTER SHAW    PTCLDY    83  75  74 S2        29.97R HX  91

.........WESTERN SC.........

CITY           SKY/WX    TMP DP  RH WIND       PRES   REMARKS
GREENVILLE     NOT AVBL
ROCK HILL      MOCLDY    81  72  74 W3        30.02R
ANDERSON       CLOUDY    78  62  57 N3        30.04R
CLEMSON        NOT AVBL
GREENWOOD      CLOUDY    82  72  71 CALM      30.04R


...................COASTAL AND OFFSHORE REPORTS..................

................LOCAL PIERS AND NC RESERVE................


STATION/POSITION TIME  SKY/WX   TEMP    WIND        PRES    VSBY
                                AIR SEA DIR/SP/G
                 (UTC)          (F)     (DEG/KT/KT) (MB)    (MI)
JOHNY MRCER PIER 0100            81 84  210/  2/  3 1015.0R
NC RESRV MASNBRO NOT AVBL
OCEAN CREST PIER 0100            82 86  230/  5/  7 1014.7R
SPRINGMAID  PIER 0100            84 85  190/  8/  9 1015.1F


................COASTAL AND OFFSHORE BUOYS................


STATION/POSITION TIME  SKY/WX   TEMP    WIND        PRES    VSBY
                                AIR SEA DIR/SP/G
                 (UTC)          (F)     (DEG/KT/KT) (MB)    (MI)
DIMNDSHOAL 41025 0100            77     330/  2/  6 1015.7R
WVE H/P(F/S)=  3/ 6 SWL H/P/D(F/S/D)=  2/120/ 6

CAPE LOOKOUT     0000            81     230/  4/  5 1015.1R
ONSLOW BAY 41036 0000            82 83  220/  6/  6 1014.6S
5 WRITEBCH 41038 0000            78 83  220/  4/  6   N/A
MASONBORO  41110 0100               83                N/A
WVE H/P(F/S)=  2/ 6 WND WVE H/P(F/S)=  2/ 6

WILM HARBR 41108 0100               84                N/A
WVE H/P(F/S)=  3/ 6 WND WVE H/P(F/S)=  3/ 6

27WRITEBCH 41037 0000            79 84  230/  6/  6 1015.0R
FRYING PAN 41013 NOT AVBL
SUNST NRSH 41024 0000            83     220/  8/ 10 1014.8R
CAPRS NRSH 41029 0000            85     240/ 12/ 16   N/A
EDISTO     41004 0100            84 84  230/ 12/ 14 1015.0R
WVE H/P(F/S)=  3/ 5 WND WVE H/P(F/S)=  2/ 5 SWL H/P/D(F/S/D)=  2/ 8



..........OFFSHORE BUOYS BEYOND 100 NM OFFSHORE...........
.....IN A TRIANGLE---HAT TO BERMUDA TO BAHAMAS TO HAT.....


STATION/POSITION TIME  SKY/WX   TEMP    WIND        PRES    VSBY
                                AIR SEA DIR/SP/G
                 (UTC)          (F)     (DEG/KT/KT) (MB)    (MI)
150E HAT   41001 NOT AVBL
W BERMUDA  41048 NOT AVBL
ATLANTIC S 41049 0029            84 86   40/  6/ 10 1021.9R
WVE H/P(F/S)=  2/ 6

E BAHAMAS  41046 0037            84 85   70/ 14/ 16 1019.8R
WVE H/P(F/S)=  4/ 9 WND WVE H/P(F/S)=  3/ 6 SWL H/P/D(F/S/D)=  2/ 70/ 9

NE BAHAMAS 41047 0023            84 85  170/  4/  6 1020.8R
WVE H/P(F/S)=  3/ 8 WND WVE H/P(F/S)=  2/ 3 SWL H/P/D(F/S/D)=  2/130/ 8

120E CANVRL41010 0100            85 86  180/  4/  6 1018.3R
WVE H/P(F/S)=  2/ 8 WND WVE H/P(F/S)=  2/ 4 SWL H/P/D(F/S/D)=  2/130/ 8


END


USA.gov is the U.S. government's official web portal to all federal, state and local government web resources and services.